Regional Weather Roundup
Issued by NWS

Home | Current Version | Previous Version | Text Only | Print | Product List | Glossary On
Versions: 1 2 3 4 5 6 7 8 9 10 11 12 13 14 15 16 17 18 19 20 21 22 23 24 25 26 27 28 29 30 31 32 33 34 35 36 37 38 39 40 41 42 43 44 45 46 47 48 49 50
000
ASUS42 KFFC 250310
RWRGA
WEATHER ROUNDUP FOR GEORGIA
NATIONAL WEATHER SERVICE PEACHTREE CITY GA
1100 PM EDT SUN SEP 24 2017

NOTE: "FAIR" INDICATES FEW OR NO CLOUDS BELOW 12,000 FEET WITH NO
SIGNIFICANT WEATHER AND/OR OBSTRUCTIONS TO VISIBILITY.

* = USE WITH CAUTION. THE STATIONS MARKED WITH AN ASTERISK MAY NOT
REPORT WEATHER SUCH AS PRECIPITATION, FOG, OR THUNDER AND ARE NOT
QUALITY CONTROLLED BY NWS.

THE REMARK "TC" DENOTES TEMPERATURE READING IN DEGREES CELSIUS.

GAZ001>058-250400-
NORTH GEORGIA

CITY           SKY/WX    TMP DP  RH WIND       PRES   REMARKS
ATLANTA        PTCLDY    74  65  73 E8        30.03R
ATHENS         PTCLDY    68  66  93 NE3       30.03S
CHAMBLEE       CLEAR     68  64  87 CALM      30.03S
PEACHTREE CITY CLEAR     68  66  93 CALM      30.03R
ROME           CLEAR     70  69  97 NE3       30.02S
WEST ATLANTA   CLEAR     70  68  93 CALM      30.03R
GAINESVILLE    CLEAR     70  65  84 NE3       30.07R
CARTERSVILLE   CLEAR     65  65 100 CALM      30.03S


CITY           SKY/WX    TMP DP  RH WIND       PRES   REMARKS
DALTON*        CLEAR     68  68 100 CALM      30.04F
MARIETTA       CLEAR     71  64  81 N3        30.03S
KENNESAW*      CLEAR     71  64  78 CALM      30.05R
CANTON*        CLEAR     68  68 100 CALM      30.06S
$$

GAZ059>098-102>109-250400-
CENTRAL GEORGIA

CITY           SKY/WX    TMP DP  RH WIND       PRES   REMARKS
AUGUSTA-BUSH   PTCLDY    73  68  84 CALM      29.97F
AUGUSTA-DANIEL CLOUDY    77  67  71 N6        30.00S
COLUMBUS       CLEAR     78  65  63 E7        29.98S
MACON          CLEAR     70  67  90 CALM      29.98F
ROBINS AFB     CLEAR     71  68  91 CALM      29.97F


CITY           SKY/WX    TMP DP  RH WIND       PRES   REMARKS
LAGRANGE*      CLEAR     68  68  98 CALM      30.01S
SYLVANIA*      CLOUDY    71  71  98 CALM      29.98S
$$

GAZ099>101-110>166-250400-
SOUTH GEORGIA

CITY           SKY/WX    TMP DP  RH WIND       PRES   REMARKS
SAVANNAH       CLOUDY    75  69  81 CALM      29.95F
VALDOSTA       CLEAR     74  66  76 CALM      29.95R
ALMA           CLEAR     71  68  90 CALM      29.95S
ST SIMONS      PTCLDY    78  71  79 NE6       29.94S
FT STEWART     CLOUDY    72  68  87 CALM      29.93S
ALBANY         CLEAR     74  66  76 NE3       29.97S
MOODY AFB      CLEAR     75  67  76 CALM      29.94S
BRUNSWICK      PTCLDY    73  68  83 N3        29.95S


CITY           SKY/WX    TMP DP  RH WIND       PRES   REMARKS
BAINBRIDGE*    PTCLDY    75  70  83 NE3       29.94S
MOULTRIE*      CLEAR     75  64  69 NE3       29.96R
VIDALIA*       CLOUDY    73  68  83 CALM      29.97S
WAYCROSS*      CLEAR     74  71  91 CALM      29.96R
DOUGLAS*       CLEAR     73  66  78 E3        29.97S
$$




USA.gov is the U.S. government's official web portal to all federal, state and local government web resources and services.